owner,sensor,date,latitude,longitude,vertical_datum,wind_speed,wind_to_direction,wind_speed_of_gust,qcFlag 
COMPS,ioos:station:USF.COMPS:SHP:1,2014-01-01T00:00:00Z,30.0600,-84.2910,10.0,2.11,13.84,3.13,'1111122,1111122,1111122' 
COMPS,ioos:station:USF.COMPS:SHP:1,2014-01-01T00:06:00Z,30.0600,-84.2910,10.0,1.91,6.2,2.45,'1111122,1111122,1111122' 
COMPS,ioos:station:USF.COMPS:SHP:1,2014-01-01T00:12:00Z,30.0600,-84.2910,10.0,2.05,7.1,2.94,'1111122,1111122,1111122' 
COMPS,ioos:station:USF.COMPS:SHP:1,2014-01-01T00:18:00Z,30.0600,-84.2910,10.0,1.93,11.13,2.64,'1111122,1111122,1111122' 
COMPS,ioos:station:USF.COMPS:SHP:1,2014-01-01T00:24:00Z,30.0600,-84.2910,10.0,2.63,3.75,3.43,'1111122,1111122,1111122' 
COMPS,ioos:station:USF.COMPS:SHP:1,2014-01-01T00:30:00Z,30.0600,-84.2910,10.0,2.47,6.36,3.33,'1111122,1111122,1111122' 
COMPS,ioos:station:USF.COMPS:SHP:1,2014-01-01T00:36:00Z,30.0600,-84.2910,10.0,2.56,355.81,3.23,'1111122,1111122,1111122' 
COMPS,ioos:station:USF.COMPS:SHP:1,2014-01-01T00:42:00Z,30.0600,-84.2910,10.0,2.64,356.56,3.72,'1111122,1111122,1111122' 
COMPS,ioos:station:USF.COMPS:SHP:1,2014-01-01T00:48:00Z,30.0600,-84.2910,10.0,3.04,2.11,4.41,'1111122,1111122,1111122' 
COMPS,ioos:station:USF.COMPS:SHP:1,2014-01-01T00:54:00Z,30.0600,-84.2910,10.0,2.86,12.18,3.92,'1111122,1111122,1111122' 
COMPS,ioos:station:USF.COMPS:SHP:1,2014-01-01T01:00:00Z,30.0600,-84.2910,10.0,2.73,11.82,4.21,'1111122,1111122,1111122' 
COMPS,ioos:station:USF.COMPS:SHP:1,2014-01-01T01:06:00Z,30.0600,-84.2910,10.0,2.43,21.41,3.52,'1111122,1111122,1111122' 
COMPS,ioos:station:USF.COMPS:SHP:1,2014-01-01T01:12:00Z,30.0600,-84.2910,10.0,2.49,31.69,4.21,'1111122,1111122,1111122' 
COMPS,ioos:station:USF.COMPS:SHP:1,2014-01-01T01:18:00Z,30.0600,-84.2910,10.0,2.41,16.3,3.82,'1111122,1111122,1111122' 
COMPS,ioos:station:USF.COMPS:SHP:1,2014-01-01T01:24:00Z,30.0600,-84.2910,10.0,2.4,20.4,3.72,'1111122,1111122,1111122' 
COMPS,ioos:station:USF.COMPS:SHP:1,2014-01-01T01:30:00Z,30.0600,-84.2910,10.0,2.47,21.1,4.01,'1111122,1111122,1111122' 
COMPS,ioos:station:USF.COMPS:SHP:1,2014-01-01T01:36:00Z,30.0600,-84.2910,10.0,2.3,20.48,3.03,'1111122,1111122,1111122' 
COMPS,ioos:station:USF.COMPS:SHP:1,2014-01-01T01:42:00Z,30.0600,-84.2910,10.0,1.61,21.91,3.13,'1111122,1111122,1111122' 
COMPS,ioos:station:USF.COMPS:SHP:1,2014-01-01T01:48:00Z,30.0600,-84.2910,10.0,1.62,33.44,3.13,'1111122,1111122,1111122' 
COMPS,ioos:station:USF.COMPS:SHP:1,2014-01-01T01:54:00Z,30.0600,-84.2910,10.0,1.29,38.5,3.03,'1111122,1111122,1111122' 
COMPS,ioos:station:USF.COMPS:SHP:1,2014-01-01T02:00:00Z,30.0600,-84.2910,10.0,1.03,57.01,2.54,'1111122,1111122,1111122' 
COMPS,ioos:station:USF.COMPS:SHP:1,2014-01-01T02:06:00Z,30.0600,-84.2910,10.0,0.93,49.35,3.13,'1111122,1111122,1111122' 
COMPS,ioos:station:USF.COMPS:SHP:1,2014-01-01T02:12:00Z,30.0600,-84.2910,10.0,2.06,34.47,3.92,'1111122,1111122,1111122' 
COMPS,ioos:station:USF.COMPS:SHP:1,2014-01-01T02:18:00Z,30.0600,-84.2910,10.0,2.49,23.81,4.01,'1111122,1111122,1111122' 
COMPS,ioos:station:USF.COMPS:SHP:1,2014-01-01T02:24:00Z,30.0600,-84.2910,10.0,2.98,9.88,4.01,'1111122,1111122,1111122' 
COMPS,ioos:station:USF.COMPS:SHP:1,2014-01-01T02:30:00Z,30.0600,-84.2910,10.0,2.38,13.02,3.72,'1111122,1111122,1111122' 
COMPS,ioos:station:USF.COMPS:SHP:1,2014-01-01T02:36:00Z,30.0600,-84.2910,10.0,2.01,31.97,3.62,'1111122,1111122,1111122' 
COMPS,ioos:station:USF.COMPS:SHP:1,2014-01-01T02:42:00Z,30.0600,-84.2910,10.0,1.6,30.37,3.23,'1111122,1111122,1111122' 
COMPS,ioos:station:USF.COMPS:SHP:1,2014-01-01T02:48:00Z,30.0600,-84.2910,10.0,1.31,28.19,2.84,'1111122,1111122,1111122' 
COMPS,ioos:station:USF.COMPS:SHP:1,2014-01-01T02:54:00Z,30.0600,-84.2910,10.0,1.72,27.32,4.31,'1111122,1111122,1111122' 
COMPS,ioos:station:USF.COMPS:SHP:1,2014-01-01T03:00:00Z,30.0600,-84.2910,10.0,2.19,14.93,3.33,'1111122,1111122,1111122' 
COMPS,ioos:station:USF.COMPS:SHP:1,2014-01-01T03:06:00Z,30.0600,-84.2910,10.0,2.51,7.84,3.23,'1111122,1111122,1111122' 
COMPS,ioos:station:USF.COMPS:SHP:1,2014-01-01T03:12:00Z,30.0600,-84.2910,10.0,2.39,6.44,3.03,'1111122,1111122,1111122' 
COMPS,ioos:station:USF.COMPS:SHP:1,2014-01-01T03:18:00Z,30.0600,-84.2910,10.0,1.82,21.68,3.13,'1111122,1111122,1111122' 
COMPS,ioos:station:USF.COMPS:SHP:1,2014-01-01T03:24:00Z,30.0600,-84.2910,10.0,1.93,25.57,3.33,'1111122,1111122,1111122' 
COMPS,ioos:station:USF.COMPS:SHP:1,2014-01-01T03:30:00Z,30.0600,-84.2910,10.0,3.01,9.78,3.92,'1111122,1111122,1111122' 
COMPS,ioos:station:USF.COMPS:SHP:1,2014-01-01T03:36:00Z,30.0600,-84.2910,10.0,2.63,9.79,3.23,'1111122,1111122,1111122' 
COMPS,ioos:station:USF.COMPS:SHP:1,2014-01-01T03:42:00Z,30.0600,-84.2910,10.0,2.38,14.18,3.92,'1111122,1111122,1111122' 
COMPS,ioos:station:USF.COMPS:SHP:1,2014-01-01T03:48:00Z,30.0600,-84.2910,10.0,2.52,10.12,3.62,'1111122,1111122,1111122' 
COMPS,ioos:station:USF.COMPS:SHP:1,2014-01-01T03:54:00Z,30.0600,-84.2910,10.0,2.82,7.29,3.92,'1111122,1111122,1111122' 
COMPS,ioos:station:USF.COMPS:SHP:1,2014-01-01T04:00:00Z,30.0600,-84.2910,10.0,2.86,13.37,4.01,'1111122,1111122,1111122' 
COMPS,ioos:station:USF.COMPS:SHP:1,2014-01-01T04:06:00Z,30.0600,-84.2910,10.0,2.61,10.84,4.11,'1111122,1111122,1111122' 
COMPS,ioos:station:USF.COMPS:SHP:1,2014-01-01T04:12:00Z,30.0600,-84.2910,10.0,2.45,13.48,3.33,'1111122,1111122,1111122' 
COMPS,ioos:station:USF.COMPS:SHP:1,2014-01-01T04:18:00Z,30.0600,-84.2910,10.0,2.21,15.54,3.13,'1111122,1111122,1111122' 
COMPS,ioos:station:USF.COMPS:SHP:1,2014-01-01T04:24:00Z,30.0600,-84.2910,10.0,1.91,21.93,3.33,'1111122,1111122,1111122' 
COMPS,ioos:station:USF.COMPS:SHP:1,2014-01-01T04:30:00Z,30.0600,-84.2910,10.0,1.87,28.34,3.43,'1111122,1111122,1111122' 
COMPS,ioos:station:USF.COMPS:SHP:1,2014-01-01T04:36:00Z,30.0600,-84.2910,10.0,1.44,42.06,3.13,'1111122,1111122,1111122' 
COMPS,ioos:station:USF.COMPS:SHP:1,2014-01-01T04:42:00Z,30.0600,-84.2910,10.0,1.81,29.91,3.72,'1111122,1111122,1111122' 
COMPS,ioos:station:USF.COMPS:SHP:1,2014-01-01T04:48:00Z,30.0600,-84.2910,10.0,1.99,18.29,3.23,'1111122,1111122,1111122' 
COMPS,ioos:station:USF.COMPS:SHP:1,2014-01-01T04:54:00Z,30.0600,-84.2910,10.0,2.37,15.69,3.43,'1111122,1111122,1111122' 
COMPS,ioos:station:USF.COMPS:SHP:1,2014-01-01T05:00:00Z,30.0600,-84.2910,10.0,2.45,9.47,3.23,'1111122,1111122,1111122' 
COMPS,ioos:station:USF.COMPS:SHP:1,2014-01-01T05:06:00Z,30.0600,-84.2910,10.0,1.54,21.68,2.74,'1111122,1111122,1111122' 
COMPS,ioos:station:USF.COMPS:SHP:1,2014-01-01T05:12:00Z,30.0600,-84.2910,10.0,1.79,13.03,3.13,'1111122,1111122,1111122' 
COMPS,ioos:station:USF.COMPS:SHP:1,2014-01-01T05:18:00Z,30.0600,-84.2910,10.0,1.38,18.09,2.54,'1111122,1111122,1111122' 
COMPS,ioos:station:USF.COMPS:SHP:1,2014-01-01T05:24:00Z,30.0600,-84.2910,10.0,1.57,23.0,2.84,'1111122,1111122,1111122' 
COMPS,ioos:station:USF.COMPS:SHP:1,2014-01-01T05:30:00Z,30.0600,-84.2910,10.0,1.62,24.4,2.94,'1111122,1111122,1111122' 
COMPS,ioos:station:USF.COMPS:SHP:1,2014-01-01T05:36:00Z,30.0600,-84.2910,10.0,1.99,24.03,3.03,'1111122,1111122,1111122' 
COMPS,ioos:station:USF.COMPS:SHP:1,2014-01-01T05:42:00Z,30.0600,-84.2910,10.0,2.0,23.98,3.33,'1111122,1111122,1111122' 
COMPS,ioos:station:USF.COMPS:SHP:1,2014-01-01T05:48:00Z,30.0600,-84.2910,10.0,2.04,24.31,3.13,'1111122,1111122,1111122' 
COMPS,ioos:station:USF.COMPS:SHP:1,2014-01-01T05:54:00Z,30.0600,-84.2910,10.0,1.96,20.6,3.03,'1111122,1111122,1111122' 
COMPS,ioos:station:USF.COMPS:SHP:1,2014-01-01T06:00:00Z,30.0600,-84.2910,10.0,1.88,16.48,3.33,'1111122,1111122,1111122' 
COMPS,ioos:station:USF.COMPS:SHP:1,2014-01-01T06:06:00Z,30.0600,-84.2910,10.0,1.38,41.11,2.84,'1111122,1111122,1111122' 
COMPS,ioos:station:USF.COMPS:SHP:1,2014-01-01T06:12:00Z,30.0600,-84.2910,10.0,1.6,28.31,2.64,'1111122,1111122,1111122' 
COMPS,ioos:station:USF.COMPS:SHP:1,2014-01-01T06:18:00Z,30.0600,-84.2910,10.0,1.79,23.34,2.74,'1111122,1111122,1111122' 
COMPS,ioos:station:USF.COMPS:SHP:1,2014-01-01T06:24:00Z,30.0600,-84.2910,10.0,2.06,16.88,3.62,'1111122,1111122,1111122' 
COMPS,ioos:station:USF.COMPS:SHP:1,2014-01-01T06:30:00Z,30.0600,-84.2910,10.0,2.98,9.38,3.62,'1111122,1111122,1111122' 
COMPS,ioos:station:USF.COMPS:SHP:1,2014-01-01T06:36:00Z,30.0600,-84.2910,10.0,1.63,29.03,3.43,'1111122,1111122,1111122' 
COMPS,ioos:station:USF.COMPS:SHP:1,2014-01-01T06:42:00Z,30.0600,-84.2910,10.0,2.17,29.54,4.31,'1111122,1111122,1111122' 
COMPS,ioos:station:USF.COMPS:SHP:1,2014-01-01T06:48:00Z,30.0600,-84.2910,10.0,1.81,27.89,2.94,'1111122,1111122,1111122' 
COMPS,ioos:station:USF.COMPS:SHP:1,2014-01-01T06:54:00Z,30.0600,-84.2910,10.0,1.76,34.94,3.03,'1111122,1111122,1111122' 
COMPS,ioos:station:USF.COMPS:SHP:1,2014-01-01T07:00:00Z,30.0600,-84.2910,10.0,2.35,21.43,3.92,'1111122,1111122,1111122' 
COMPS,ioos:station:USF.COMPS:SHP:1,2014-01-01T07:06:00Z,30.0600,-84.2910,10.0,2.42,16.69,3.62,'1111122,1111122,1111122' 
COMPS,ioos:station:USF.COMPS:SHP:1,2014-01-01T07:12:00Z,30.0600,-84.2910,10.0,2.1,20.36,3.13,'1111122,1111122,1111122' 
COMPS,ioos:station:USF.COMPS:SHP:1,2014-01-01T07:18:00Z,30.0600,-84.2910,10.0,2.5,21.94,3.62,'1111122,1111122,1111122' 
COMPS,ioos:station:USF.COMPS:SHP:1,2014-01-01T07:24:00Z,30.0600,-84.2910,10.0,2.74,14.78,4.01,'1111122,1111122,1111122' 
COMPS,ioos:station:USF.COMPS:SHP:1,2014-01-01T07:30:00Z,30.0600,-84.2910,10.0,3.1,6.29,4.99,'1111122,1111122,1111122' 
COMPS,ioos:station:USF.COMPS:SHP:1,2014-01-01T07:36:00Z,30.0600,-84.2910,10.0,2.76,14.03,3.52,'1111122,1111122,1111122' 
COMPS,ioos:station:USF.COMPS:SHP:1,2014-01-01T07:42:00Z,30.0600,-84.2910,10.0,2.67,17.04,4.21,'1111122,1111122,1111122' 
COMPS,ioos:station:USF.COMPS:SHP:1,2014-01-01T07:48:00Z,30.0600,-84.2910,10.0,1.73,37.06,3.72,'1111122,1111122,1111122' 
COMPS,ioos:station:USF.COMPS:SHP:1,2014-01-01T07:54:00Z,30.0600,-84.2910,10.0,1.84,45.11,4.6,'1111122,1111122,1111122' 
COMPS,ioos:station:USF.COMPS:SHP:1,2014-01-01T08:00:00Z,30.0600,-84.2910,10.0,1.99,40.37,4.01,'1111122,1111122,1111122' 
COMPS,ioos:station:USF.COMPS:SHP:1,2014-01-01T08:06:00Z,30.0600,-84.2910,10.0,2.08,49.88,3.92,'1111122,1111122,1111122' 
COMPS,ioos:station:USF.COMPS:SHP:1,2014-01-01T08:12:00Z,30.0600,-84.2910,10.0,1.45,54.71,4.11,'1111122,1111122,1111122' 
COMPS,ioos:station:USF.COMPS:SHP:1,2014-01-01T08:18:00Z,30.0600,-84.2910,10.0,2.3,44.53,5.09,'1111122,1111122,1111122' 
COMPS,ioos:station:USF.COMPS:SHP:1,2014-01-01T08:24:00Z,30.0600,-84.2910,10.0,2.6,45.17,4.41,'1111122,1111122,1111122' 
COMPS,ioos:station:USF.COMPS:SHP:1,2014-01-01T08:30:00Z,30.0600,-84.2910,10.0,2.3,50.26,4.99,'1111122,1111122,1111122' 
COMPS,ioos:station:USF.COMPS:SHP:1,2014-01-01T08:36:00Z,30.0600,-84.2910,10.0,2.39,48.51,4.99,'1111122,1111122,1111122' 
COMPS,ioos:station:USF.COMPS:SHP:1,2014-01-01T08:42:00Z,30.0600,-84.2910,10.0,2.52,55.93,5.39,'1111122,1111122,1111122' 
COMPS,ioos:station:USF.COMPS:SHP:1,2014-01-01T08:48:00Z,30.0600,-84.2910,10.0,1.95,52.93,4.11,'1111122,1111122,1111122' 
COMPS,ioos:station:USF.COMPS:SHP:1,2014-01-01T08:54:00Z,30.0600,-84.2910,10.0,1.8,44.65,3.52,'1111122,1111122,1111122' 
COMPS,ioos:station:USF.COMPS:SHP:1,2014-01-01T09:00:00Z,30.0600,-84.2910,10.0,2.4,44.66,4.8,'1111122,1111122,1111122' 
COMPS,ioos:station:USF.COMPS:SHP:1,2014-01-01T09:06:00Z,30.0600,-84.2910,10.0,2.08,34.42,3.72,'1111122,1111122,1111122' 
COMPS,ioos:station:USF.COMPS:SHP:1,2014-01-01T09:12:00Z,30.0600,-84.2910,10.0,1.53,45.31,3.52,'1111122,1111122,1111122' 
COMPS,ioos:station:USF.COMPS:SHP:1,2014-01-01T09:18:00Z,30.0600,-84.2910,10.0,2.02,46.82,4.8,'1111122,1111122,1111122' 
COMPS,ioos:station:USF.COMPS:SHP:1,2014-01-01T09:24:00Z,30.0600,-84.2910,10.0,1.57,56.95,4.01,'1111122,1111122,1111122' 
COMPS,ioos:station:USF.COMPS:SHP:1,2014-01-01T09:30:00Z,30.0600,-84.2910,10.0,1.66,45.63,3.62,'1111122,1111122,1111122' 
COMPS,ioos:station:USF.COMPS:SHP:1,2014-01-01T09:36:00Z,30.0600,-84.2910,10.0,1.82,44.64,3.52,'1111122,1111122,1111122' 
COMPS,ioos:station:USF.COMPS:SHP:1,2014-01-01T09:42:00Z,30.0600,-84.2910,10.0,1.54,60.87,3.13,'1111122,1111122,1111122' 
COMPS,ioos:station:USF.COMPS:SHP:1,2014-01-01T09:48:00Z,30.0600,-84.2910,10.0,1.32,50.73,3.43,'1111122,1111122,1111122' 
COMPS,ioos:station:USF.COMPS:SHP:1,2014-01-01T09:54:00Z,30.0600,-84.2910,10.0,1.33,65.81,3.43,'1111122,1111122,1111122' 
COMPS,ioos:station:USF.COMPS:SHP:1,2014-01-01T10:00:00Z,30.0600,-84.2910,10.0,1.64,52.12,5.29,'1111122,1111122,1111122' 
COMPS,ioos:station:USF.COMPS:SHP:1,2014-01-01T10:06:00Z,30.0600,-84.2910,10.0,1.73,60.35,3.72,'1111122,1111122,1111122' 
COMPS,ioos:station:USF.COMPS:SHP:1,2014-01-01T10:12:00Z,30.0600,-84.2910,10.0,1.85,73.47,3.23,'1111122,1111122,1111122' 
COMPS,ioos:station:USF.COMPS:SHP:1,2014-01-01T10:18:00Z,30.0600,-84.2910,10.0,1.71,51.1,3.82,'1111122,1111122,1111122' 
COMPS,ioos:station:USF.COMPS:SHP:1,2014-01-01T10:24:00Z,30.0600,-84.2910,10.0,1.52,51.38,3.82,'1111122,1111122,1111122' 
COMPS,ioos:station:USF.COMPS:SHP:1,2014-01-01T10:30:00Z,30.0600,-84.2910,10.0,0.9,64.83,2.64,'1111122,1111122,1111122' 
COMPS,ioos:station:USF.COMPS:SHP:1,2014-01-01T10:36:00Z,30.0600,-84.2910,10.0,1.33,61.42,3.92,'1111122,1111122,1111122' 
COMPS,ioos:station:USF.COMPS:SHP:1,2014-01-01T10:42:00Z,30.0600,-84.2910,10.0,1.47,66.19,3.33,'1111122,1111122,1111122' 
COMPS,ioos:station:USF.COMPS:SHP:1,2014-01-01T10:48:00Z,30.0600,-84.2910,10.0,1.23,54.37,3.13,'1111122,1111122,1111122' 
COMPS,ioos:station:USF.COMPS:SHP:1,2014-01-01T10:54:00Z,30.0600,-84.2910,10.0,1.38,52.29,3.43,'1111122,1111122,1111122' 
COMPS,ioos:station:USF.COMPS:SHP:1,2014-01-01T11:00:00Z,30.0600,-84.2910,10.0,2.2,46.62,4.41,'1111122,1111122,1111122' 
COMPS,ioos:station:USF.COMPS:SHP:1,2014-01-01T11:06:00Z,30.0600,-84.2910,10.0,2.15,39.23,4.41,'1111122,1111122,1111122' 
COMPS,ioos:station:USF.COMPS:SHP:1,2014-01-01T11:12:00Z,30.0600,-84.2910,10.0,1.83,35.57,3.43,'1111122,1111122,1111122' 
COMPS,ioos:station:USF.COMPS:SHP:1,2014-01-01T11:18:00Z,30.0600,-84.2910,10.0,1.38,37.42,3.03,'1111122,1111122,1111122' 
COMPS,ioos:station:USF.COMPS:SHP:1,2014-01-01T11:24:00Z,30.0600,-84.2910,10.0,1.91,37.49,4.11,'1111122,1111122,1111122' 
COMPS,ioos:station:USF.COMPS:SHP:1,2014-01-01T11:30:00Z,30.0600,-84.2910,10.0,2.07,33.8,4.41,'1111122,1111122,1111122' 
COMPS,ioos:station:USF.COMPS:SHP:1,2014-01-01T11:36:00Z,30.0600,-84.2910,10.0,1.53,33.17,2.74,'1111122,1111122,1111122' 
COMPS,ioos:station:USF.COMPS:SHP:1,2014-01-01T11:42:00Z,30.0600,-84.2910,10.0,1.31,41.12,2.64,'1111122,1111122,1111122' 
COMPS,ioos:station:USF.COMPS:SHP:1,2014-01-01T11:48:00Z,30.0600,-84.2910,10.0,1.55,44.4,3.03,'1111122,1111122,1111122' 
COMPS,ioos:station:USF.COMPS:SHP:1,2014-01-01T11:54:00Z,30.0600,-84.2910,10.0,0.94,50.45,3.03,'1111122,1111122,1111122' 
COMPS,ioos:station:USF.COMPS:SHP:1,2014-01-01T12:00:00Z,30.0600,-84.2910,10.0,1.17,34.71,2.45,'1111122,1111122,1111122' 
COMPS,ioos:station:USF.COMPS:SHP:1,2014-01-01T12:06:00Z,30.0600,-84.2910,10.0,1.17,48.65,3.13,'1111122,1111122,1111122' 
COMPS,ioos:station:USF.COMPS:SHP:1,2014-01-01T12:12:00Z,30.0600,-84.2910,10.0,1.45,45.81,3.03,'1111122,1111122,1111122' 
COMPS,ioos:station:USF.COMPS:SHP:1,2014-01-01T12:18:00Z,30.0600,-84.2910,10.0,1.21,37.1,2.84,'1111122,1111122,1111122' 
COMPS,ioos:station:USF.COMPS:SHP:1,2014-01-01T12:24:00Z,30.0600,-84.2910,10.0,1.53,38.99,3.23,'1111122,1111122,1111122' 
COMPS,ioos:station:USF.COMPS:SHP:1,2014-01-01T12:30:00Z,30.0600,-84.2910,10.0,1.45,44.38,2.94,'1111122,1111122,1111122' 
COMPS,ioos:station:USF.COMPS:SHP:1,2014-01-01T12:36:00Z,30.0600,-84.2910,10.0,1.5,46.61,3.23,'1111122,1111122,1111122' 
COMPS,ioos:station:USF.COMPS:SHP:1,2014-01-01T12:42:00Z,30.0600,-84.2910,10.0,1.9,18.84,2.94,'1111122,1111122,1111122' 
COMPS,ioos:station:USF.COMPS:SHP:1,2014-01-01T12:48:00Z,30.0600,-84.2910,10.0,2.39,11.6,3.62,'1111122,1111122,1111122' 
COMPS,ioos:station:USF.COMPS:SHP:1,2014-01-01T12:54:00Z,30.0600,-84.2910,10.0,1.88,26.55,3.03,'1111122,1111122,1111122' 
COMPS,ioos:station:USF.COMPS:SHP:1,2014-01-01T13:00:00Z,30.0600,-84.2910,10.0,2.02,37.06,3.33,'1111122,1111122,1111122' 
COMPS,ioos:station:USF.COMPS:SHP:1,2014-01-01T13:06:00Z,30.0600,-84.2910,10.0,1.2,39.99,3.33,'1111122,1111122,1111122' 
COMPS,ioos:station:USF.COMPS:SHP:1,2014-01-01T13:12:00Z,30.0600,-84.2910,10.0,1.59,39.23,2.84,'1111122,1111122,1111122' 
COMPS,ioos:station:USF.COMPS:SHP:1,2014-01-01T13:18:00Z,30.0600,-84.2910,10.0,2.27,35.84,3.62,'1111122,1111122,1111122' 
COMPS,ioos:station:USF.COMPS:SHP:1,2014-01-01T13:24:00Z,30.0600,-84.2910,10.0,1.62,23.97,3.23,'1111122,1111122,1111122' 
COMPS,ioos:station:USF.COMPS:SHP:1,2014-01-01T13:30:00Z,30.0600,-84.2910,10.0,1.94,35.15,3.03,'1111122,1111122,1111122' 
COMPS,ioos:station:USF.COMPS:SHP:1,2014-01-01T13:36:00Z,30.0600,-84.2910,10.0,0.91,43.22,2.45,'1111122,1111122,1111122' 
COMPS,ioos:station:USF.COMPS:SHP:1,2014-01-01T13:42:00Z,30.0600,-84.2910,10.0,1.96,40.21,3.33,'1111122,1111122,1111122' 
COMPS,ioos:station:USF.COMPS:SHP:1,2014-01-01T13:48:00Z,30.0600,-84.2910,10.0,1.25,45.34,3.52,'1111122,1111122,1111122' 
COMPS,ioos:station:USF.COMPS:SHP:1,2014-01-01T13:54:00Z,30.0600,-84.2910,10.0,0.98,58.95,2.45,'1111122,1111122,1111122' 
COMPS,ioos:station:USF.COMPS:SHP:1,2014-01-01T14:00:00Z,30.0600,-84.2910,10.0,1.17,56.97,2.45,'1111122,1111122,1111122' 
COMPS,ioos:station:USF.COMPS:SHP:1,2014-01-01T14:06:00Z,30.0600,-84.2910,10.0,0.69,66.42,1.96,'1111122,1111122,1111122' 
COMPS,ioos:station:USF.COMPS:SHP:1,2014-01-01T14:12:00Z,30.0600,-84.2910,10.0,1.07,61.7,2.45,'1111122,1111122,1111122' 
COMPS,ioos:station:USF.COMPS:SHP:1,2014-01-01T14:18:00Z,30.0600,-84.2910,10.0,1.04,69.06,2.05,'1111122,1111122,1111122' 
COMPS,ioos:station:USF.COMPS:SHP:1,2014-01-01T14:24:00Z,30.0600,-84.2910,10.0,1.34,84.55,3.23,'1111122,1111122,1111122' 
COMPS,ioos:station:USF.COMPS:SHP:1,2014-01-01T14:30:00Z,30.0600,-84.2910,10.0,1.82,77.21,3.13,'1111122,1111122,1111122' 
COMPS,ioos:station:USF.COMPS:SHP:1,2014-01-01T14:36:00Z,30.0600,-84.2910,10.0,1.38,87.86,3.82,'1111122,1111122,1111122' 
COMPS,ioos:station:USF.COMPS:SHP:1,2014-01-01T14:42:00Z,30.0600,-84.2910,10.0,1.92,95.61,4.01,'1111122,1111122,1111122' 
COMPS,ioos:station:USF.COMPS:SHP:1,2014-01-01T14:48:00Z,30.0600,-84.2910,10.0,2.12,81.33,3.62,'1111122,1111122,1111122' 
COMPS,ioos:station:USF.COMPS:SHP:1,2014-01-01T14:54:00Z,30.0600,-84.2910,10.0,2.08,90.86,4.21,'1111122,1111122,1111122' 
COMPS,ioos:station:USF.COMPS:SHP:1,2014-01-01T15:00:00Z,30.0600,-84.2910,10.0,2.07,98.88,3.72,'1111122,1111122,1111122' 
COMPS,ioos:station:USF.COMPS:SHP:1,2014-01-01T15:06:00Z,30.0600,-84.2910,10.0,1.99,103.3,3.72,'1111122,1111122,1111122' 
COMPS,ioos:station:USF.COMPS:SHP:1,2014-01-01T15:12:00Z,30.0600,-84.2910,10.0,2.07,98.62,4.11,'1111122,1111122,1111122' 
COMPS,ioos:station:USF.COMPS:SHP:1,2014-01-01T15:18:00Z,30.0600,-84.2910,10.0,1.41,97.6,3.13,'1111122,1111122,1111122' 
COMPS,ioos:station:USF.COMPS:SHP:1,2014-01-01T15:24:00Z,30.0600,-84.2910,10.0,1.71,107.23,3.92,'1111122,1111122,1111122' 
COMPS,ioos:station:USF.COMPS:SHP:1,2014-01-01T15:30:00Z,30.0600,-84.2910,10.0,2.16,113.53,3.43,'1111122,1111122,1111122' 
COMPS,ioos:station:USF.COMPS:SHP:1,2014-01-01T15:36:00Z,30.0600,-84.2910,10.0,1.75,110.57,3.52,'1111122,1111122,1111122' 
COMPS,ioos:station:USF.COMPS:SHP:1,2014-01-01T15:42:00Z,30.0600,-84.2910,10.0,2.0,100.84,3.62,'1111122,1111122,1111122' 
COMPS,ioos:station:USF.COMPS:SHP:1,2014-01-01T15:48:00Z,30.0600,-84.2910,10.0,1.81,106.53,3.52,'1111122,1111122,1111122' 
COMPS,ioos:station:USF.COMPS:SHP:1,2014-01-01T15:54:00Z,30.0600,-84.2910,10.0,1.91,111.55,3.23,'1111122,1111122,1111122' 
COMPS,ioos:station:USF.COMPS:SHP:1,2014-01-01T16:00:00Z,30.0600,-84.2910,10.0,2.4,111.6,3.82,'1111122,1111122,1111122' 
COMPS,ioos:station:USF.COMPS:SHP:1,2014-01-01T16:06:00Z,30.0600,-84.2910,10.0,2.34,107.78,4.11,'1111122,1111122,1111122' 
COMPS,ioos:station:USF.COMPS:SHP:1,2014-01-01T16:12:00Z,30.0600,-84.2910,10.0,2.32,111.67,3.92,'1111122,1111122,1111122' 
COMPS,ioos:station:USF.COMPS:SHP:1,2014-01-01T16:18:00Z,30.0600,-84.2910,10.0,2.43,114.62,4.6,'1111122,1111122,1111122' 
COMPS,ioos:station:USF.COMPS:SHP:1,2014-01-01T16:24:00Z,30.0600,-84.2910,10.0,2.06,111.21,3.52,'1111122,1111122,1111122' 
COMPS,ioos:station:USF.COMPS:SHP:1,2014-01-01T16:30:00Z,30.0600,-84.2910,10.0,1.85,113.14,3.13,'1111122,1111122,1111122' 
COMPS,ioos:station:USF.COMPS:SHP:1,2014-01-01T16:36:00Z,30.0600,-84.2910,10.0,1.91,116.78,3.52,'1111122,1111122,1111122' 
COMPS,ioos:station:USF.COMPS:SHP:1,2014-01-01T16:42:00Z,30.0600,-84.2910,10.0,2.06,114.87,3.43,'1111122,1111122,1111122' 
COMPS,ioos:station:USF.COMPS:SHP:1,2014-01-01T16:48:00Z,30.0600,-84.2910,10.0,2.09,114.74,3.13,'1111122,1111122,1111122' 
COMPS,ioos:station:USF.COMPS:SHP:1,2014-01-01T16:54:00Z,30.0600,-84.2910,10.0,1.56,99.52,2.64,'1111122,1111122,1111122' 
COMPS,ioos:station:USF.COMPS:SHP:1,2014-01-01T17:00:00Z,30.0600,-84.2910,10.0,1.55,92.54,2.74,'1111122,1111122,1111122' 
COMPS,ioos:station:USF.COMPS:SHP:1,2014-01-01T17:06:00Z,30.0600,-84.2910,10.0,0.9,91.95,2.54,'1111122,1111122,1111122' 
COMPS,ioos:station:USF.COMPS:SHP:1,2014-01-01T17:12:00Z,30.0600,-84.2910,10.0,0.78,76.09,2.45,'1111122,1111122,1111122' 
COMPS,ioos:station:USF.COMPS:SHP:1,2014-01-01T17:18:00Z,30.0600,-84.2910,10.0,0.95,65.82,2.15,'1111122,1111122,1111122' 
COMPS,ioos:station:USF.COMPS:SHP:1,2014-01-01T17:24:00Z,30.0600,-84.2910,10.0,1.15,77.28,3.52,'1111122,1111122,1111122' 
COMPS,ioos:station:USF.COMPS:SHP:1,2014-01-01T17:30:00Z,30.0600,-84.2910,10.0,1.33,71.73,2.54,'1111122,1111122,1111122' 
COMPS,ioos:station:USF.COMPS:SHP:1,2014-01-01T17:36:00Z,30.0600,-84.2910,10.0,1.21,68.09,2.84,'1111122,1111122,1111122' 
COMPS,ioos:station:USF.COMPS:SHP:1,2014-01-01T17:42:00Z,30.0600,-84.2910,10.0,1.41,84.4,2.94,'1111122,1111122,1111122' 
COMPS,ioos:station:USF.COMPS:SHP:1,2014-01-01T17:48:00Z,30.0600,-84.2910,10.0,1.06,63.83,2.54,'1111122,1111122,1111122' 
COMPS,ioos:station:USF.COMPS:SHP:1,2014-01-01T17:54:00Z,30.0600,-84.2910,10.0,1.05,70.61,2.84,'1111122,1111122,1111122' 
COMPS,ioos:station:USF.COMPS:SHP:1,2014-01-01T18:00:00Z,30.0600,-84.2910,10.0,1.17,58.99,2.45,'1111122,1111122,1111122' 
COMPS,ioos:station:USF.COMPS:SHP:1,2014-01-01T18:06:00Z,30.0600,-84.2910,10.0,1.2,71.17,2.45,'1111122,1111122,1111122' 
COMPS,ioos:station:USF.COMPS:SHP:1,2014-01-01T18:12:00Z,30.0600,-84.2910,10.0,0.93,62.52,2.35,'1111122,1111122,1111122' 
COMPS,ioos:station:USF.COMPS:SHP:1,2014-01-01T18:18:00Z,30.0600,-84.2910,10.0,0.94,44.22,2.54,'1111122,1111122,1111122' 
COMPS,ioos:station:USF.COMPS:SHP:1,2014-01-01T18:24:00Z,30.0600,-84.2910,10.0,1.69,33.35,2.74,'1111122,1111122,1111122' 
COMPS,ioos:station:USF.COMPS:SHP:1,2014-01-01T18:30:00Z,30.0600,-84.2910,10.0,1.16,21.46,2.35,'1111122,1111122,1111122' 
COMPS,ioos:station:USF.COMPS:SHP:1,2014-01-01T18:36:00Z,30.0600,-84.2910,10.0,1.12,20.07,2.35,'1111122,1111122,1111122' 
COMPS,ioos:station:USF.COMPS:SHP:1,2014-01-01T18:42:00Z,30.0600,-84.2910,10.0,1.34,15.2,2.35,'1111122,1111122,1111122' 
COMPS,ioos:station:USF.COMPS:SHP:1,2014-01-01T18:48:00Z,30.0600,-84.2910,10.0,1.71,0.34,2.25,'1111122,1111122,1111122' 
COMPS,ioos:station:USF.COMPS:SHP:1,2014-01-01T18:54:00Z,30.0600,-84.2910,10.0,1.36,8.23,2.05,'1111122,1111122,1111122' 
COMPS,ioos:station:USF.COMPS:SHP:1,2014-01-01T19:00:00Z,30.0600,-84.2910,10.0,2.28,2.43,3.23,'1111122,1111122,1111122' 
COMPS,ioos:station:USF.COMPS:SHP:1,2014-01-01T19:06:00Z,30.0600,-84.2910,10.0,1.78,2.84,2.74,'1111122,1111122,1111122' 
COMPS,ioos:station:USF.COMPS:SHP:1,2014-01-01T19:12:00Z,30.0600,-84.2910,10.0,2.33,4.75,3.03,'1111122,1111122,1111122' 
COMPS,ioos:station:USF.COMPS:SHP:1,2014-01-01T19:18:00Z,30.0600,-84.2910,10.0,2.28,10.15,3.13,'1111122,1111122,1111122' 
COMPS,ioos:station:USF.COMPS:SHP:1,2014-01-01T19:24:00Z,30.0600,-84.2910,10.0,2.16,13.47,2.84,'1111122,1111122,1111122' 
COMPS,ioos:station:USF.COMPS:SHP:1,2014-01-01T19:30:00Z,30.0600,-84.2910,10.0,1.97,18.65,3.23,'1111122,1111122,1111122' 
COMPS,ioos:station:USF.COMPS:SHP:1,2014-01-01T19:36:00Z,30.0600,-84.2910,10.0,2.14,5.57,3.33,'1111122,1111122,1111122' 